Location: Grossmotten
(48.5500°N, 15.3833°E)
Time: 10:32:36
(UTC+00:00)

Exosat Rocket - Pass Details

Date: 15 November 2019
Orbit: 762 x 2513 km, 72.3° (Epoch: 05 December)

Event Time Altitude Azimuth Distance (km) Brightness Sun altitude
Rises 05:17:04 0° 336° (NNW) 3,263 6.3 -8.3°
Reaches altitude 10° 05:19:17 10° 339° (NNW) 2,385 5.7 -7.9°
Maximum altitude 05:24:30 65° 62° (ENE) 1,007 4.3 -7.1°
Drops below altitude 10° 05:31:15 10° 144° (SE) 3,049 7.6 -6.1°
Sets 05:34:24 0° 147° (SSE) 4,254 8.3 -5.6°
